[[{"header":{"parameterUnit":"m.s-1","parameterCategory":1,"la1":30.2991,"la2":30.254,"lo1":-89.0895,"lo2":-89.0444,"dy":0.0017,"dx":0.0017,"nx":28,"ny":28,"refTime":"2024-11-23T03:00:00:Z","depth":0,"parameterNumber":2,"parameterNumberName":"U-component_of_WINDS"},"data":[0,0,0,0,0,0,0,0,0,0,0,0,0,0,0,0,0,0,0,0,0,0,0,0,0,0,0,0,0,0,0,0,0,0,0,0,0,0,0,0,0,0,0,0,0,0,0,0,0,0,0,0,0,0,0,0,0,0,0.3241,0.3241,0,0.3311,0.3312,0.3313,0.338,0.3381,0.3382,0.3383,0.3455,0.3457,0.3458,0,0,0,0,0,0,0,0,0,0,0,0,0,0.3164,0.3165,0.324,0.3241,0.3242,0.3311,0.3312,0.3313,0.338,0.3381,0.3382,0.3383,0.3455,0.3456,0.3458,0,0,0,0,0,0,0,0,0,0,0,0,0,0.3212,0.3165,0.324,0.3284,0.3289,0.3311,0.3312,0.3313,0.338,0.3381,0.3382,0.3384,0.3455,0.3456,0.3458,0.3443,0,0,0.3463,0.3464,0,0,0,0,0,0,0,0,0.3209,0.3215,0.3277,0.3281,0.3286,0.3338,0.3312,0.3357,0.3379,0.3345,0.3383,0.3384,0.3415,0.342,0.3431,0.3446,0.345,0.3463,0.3464,0.3465,0.3466,0,0,0,0,0,0,0,0.3206,0.3212,0.3269,0.3277,0.3283,0.33,0.3308,0.3321,0.3372,0.3348,0.3353,0.3361,0.3418,0.3429,0.3433,0.3451,0.3463,0.3465,0.3466,0.3467,0.3457,0.3456,0,0,0,0,0,0,0.3196,0.3209,0.3266,0.3271,0.325,0.33,0.331,0.332,0.3372,0.3382,0.336,0.3364,0.3426,0.3431,0.3436,0.3422,0.3465,0.3467,0.3468,0.3458,0.3457,0.3455,0,0,0,0,0,0,0.3194,0.32,0.3263,0.3241,0.325,0.33,0.3312,0.3321,0.3332,0.3381,0.339,0.3361,0.3427,0.3434,0.3441,0.3425,0.3468,0.3469,0.346,0.3458,0.3456,0.3392,0,0,0,0,0,0,0.3191,0.3199,0.3194,0.3241,0.3251,0.3267,0.3311,0.3321,0.3335,0.3341,0.3385,0.3393,0.3428,0.3438,0.3442,0.3428,0.347,0.3461,0.3459,0.3457,0.3396,0.3389,0.3382,0,0,0,0,0,0.3188,0.3173,0.3193,0.32,0.3246,0.3266,0.3272,0.3312,0.3333,0.3328,0.336,0.3392,0.3426,0.3438,0.3444,0.343,0.3463,0.346,0.3457,0.3399,0.339,0.3382,0,0,0,0,0,0,0.3124,0.318,0.3203,0.3203,0.3229,0.3277,0.3272,0.3301,0.3322,0.3327,0.3376,0.3386,0.3387,0.3409,0.3421,0.3418,0.3449,0.3447,0.3403,0.3395,0.3388,0.3382,0.3472,0,0,0,0,0,0.3109,0.3121,0.317,0.3164,0.3176,0.3222,0.3232,0.3261,0.329,0.3301,0.3333,0.336,0.3377,0.3387,0.3406,0.34,0.341,0.3393,0.3386,0.338,0.3378,0.3376,0.3369,0.3446,0.3446,0.3446,0,0,0.308,0.3112,0.3116,0.3152,0.3176,0.3186,0.3231,0.324,0.3248,0.3303,0.3311,0.3336,0.3369,0.3369,0.3371,0.3388,0.3359,0.3376,0.3371,0.3372,0.3372,0.3365,0.3358,0.3444,0.3444,0.3445,0,0,0.3032,0.3057,0.3056,0.3078,0.3114,0.3144,0.3143,0.3187,0.3205,0.3214,0.3255,0.3266,0.3294,0.3316,0.3331,0.329,0.3321,0.3295,0.3258,0.3256,0.325,0.3244,0.323,0.3224,0.3293,0.3292,0.3292,0,0.2991,0.3008,0.3051,0.3058,0.3072,0.3122,0.3121,0.3141,0.318,0.3189,0.3207,0.3243,0.3269,0.3275,0.3265,0.3275,0.3276,0.329,0.3247,0.3242,0.3238,0.3224,0.3219,0.3289,0.3289,0.329,0.329,0,0.2956,0.2967,0.2962,0.2998,0.3012,0.3014,0.3058,0.3067,0.3094,0.3122,0.3131,0.3164,0.3189,0.3193,0.322,0.3203,0.3212,0.3238,0.327,0.3227,0.3214,0.321,0.3284,0.3285,0.3286,0.3287,0,0,0.2869,0.2929,0.2926,0.2943,0.2985,0.2995,0.2999,0.3024,0.303,0.3056,0.3061,0.3083,0.3107,0.3124,0.3154,0.3152,0.3117,0.3178,0.318,0.3165,0.3099,0.3079,0.3072,0.3137,0.3137,0.3136,0.3096,0,0.2827,0.2838,0.2877,0.2877,0.2888,0.2935,0.2939,0.2965,0.2991,0.3004,0.3034,0.3049,0.308,0.309,0.309,0.3121,0.3104,0.3125,0.3142,0.3142,0.3132,0.3066,0.3045,0.3006,0.3092,0.3091,0.3091,0,0.278,0.2802,0.2802,0.2844,0.285,0.2853,0.2878,0.289,0.2921,0.294,0.2959,0.2992,0.2999,0.3029,0.304,0.3053,0.3063,0.3079,0.3078,0.3081,0.3113,0.3067,0.2994,0.2988,0.3084,0.3084,0.3085,0,0.2716,0.2745,0.275,0.2763,0.2811,0.2812,0.2832,0.2864,0.2877,0.2899,0.2907,0.293,0.2943,0.296,0.2998,0.3016,0.3004,0.3038,0.302,0.3019,0.3015,0.3015,0.2943,0.3022,0.3022,0.3022,0.3022,0,0.2665,0.2663,0.2721,0.2724,0.2723,0.2768,0.2766,0.2791,0.2819,0.2827,0.2869,0.2875,0.2926,0.2938,0.2969,0.2973,0.2978,0.2994,0.3002,0.299,0.2987,0.2996,0.3,0.3021,0.3021,0.3021,0.3022,0,0.2593,0.2632,0.2639,0.2685,0.2696,0.2693,0.2732,0.2736,0.2765,0.2774,0.2779,0.2825,0.2841,0.2881,0.2909,0.2929,0.2925,0.294,0.2914,0.2919,0.2899,0.29,0.283,0.2823,0.2907,0.2906,0.2905,0,0.2558,0.2558,0.2603,0.2611,0.263,0.2642,0.2655,0.2699,0.271,0.2745,0.2745,0.2765,0.2783,0.2807,0.2842,0.2863,0.2879,0.2853,0.2882,0.287,0.2878,0.2877,0.2877,0.2846,0.2845,0.2844,0.2843,0,0.2491,0.251,0.2527,0.255,0.2563,0.2584,0.2606,0.2611,0.266,0.2671,0.2688,0.2702,0.273,0.2749,0.2775,0.2796,0.2828,0.2834,0.2831,0.2818,0.2803,0.281,0.2896,0.2835,0.2836,0.2837,0.2837,0.2837,0.2437,0.2438,0.247,0.2487,0.2509,0.2528,0.2534,0.2564,0.2579,0.2605,0.263,0.2644,0.2675,0.2713,0.2732,0.2744,0.276,0.2756,0.2755,0.2753,0.2748,0.2801,0.2749,0.275,0.275,0.275,0.275,0,0.2372,0.2395,0.2409,0.244,0.2452,0.2481,0.2507,0.2516,0.2529,0.2554,0.2571,0.2591,0.2609,0.2646,0.2668,0.267,0.2685,0.2674,0.2674,0.2679,0.2732,0.2732,0.2662,0.2662,0.2662,0.2662,0.2662,0.2662,0.234,0.2344,0.2366,0.2382,0.2405,0.2419,0.2432,0.245,0.2471,0.2491,0.2506,0.253,0.256,0.2584,0.2602,0.2613,0.2618,0.2603,0.2617,0.2667,0.2675,0.2683,0.2683,0.2604,0.2604,0.2563,0.2563,0.2562]},{"header":{"parameterUnit":"m.s-1","parameterCategory":1,"la1":30.2991,"la2":30.254,"lo1":-89.0895,"lo2":-89.0444,"dy":0.0017,"dx":0.0017,"nx":28,"ny":28,"refTime":"2024-11-23T03:00:00:Z","depth":0,"parameterNumber":3,"parameterNumberName":"V-component_of_WINDS"},"data":[0,0,0,0,0,0,0,0,0,0,0,0,0,0,0,0,0,0,0,0,0,0,0,0,0,0,0,0,0,0,0,0,0,0,0,0,0,0,0,0,0,0,0,0,0,0,0,0,0,0,0,0,0,0,0,0,0,0,0.6596,0.6596,0,0.6565,0.6564,0.6564,0.6574,0.6575,0.6575,0.6576,0.6541,0.654,0.6538,0,0,0,0,0,0,0,0,0,0,0,0,0,0.6663,0.6662,0.6596,0.6596,0.6596,0.6565,0.6564,0.6564,0.6574,0.6575,0.6575,0.6576,0.6542,0.654,0.6538,0,0,0,0,0,0,0,0,0,0,0,0,0,0.6633,0.6662,0.6596,0.6597,0.6597,0.6565,0.6564,0.6564,0.6574,0.6575,0.6576,0.6577,0.6543,0.654,0.6538,0.6503,0,0,0.6531,0.653,0,0,0,0,0,0,0,0,0.6635,0.6631,0.6597,0.6597,0.6596,0.6574,0.6575,0.6543,0.6573,0.6582,0.6576,0.6577,0.6551,0.6548,0.654,0.6502,0.65,0.6531,0.6529,0.6528,0.6528,0,0,0,0,0,0,0,0.6637,0.6632,0.6584,0.6597,0.6596,0.6598,0.6595,0.6569,0.6561,0.6582,0.6582,0.6579,0.6551,0.6542,0.654,0.65,0.6531,0.6529,0.6527,0.6526,0.6431,0.643,0,0,0,0,0,0,0.664,0.6634,0.6585,0.6583,0.6619,0.6596,0.6592,0.658,0.6562,0.656,0.6578,0.6579,0.6546,0.6542,0.6538,0.6496,0.6528,0.6526,0.6525,0.6432,0.6431,0.6429,0,0,0,0,0,0,0.6641,0.6635,0.6586,0.6608,0.6602,0.6594,0.658,0.6579,0.657,0.6559,0.6557,0.657,0.6547,0.6542,0.6512,0.6495,0.6525,0.6523,0.6433,0.6432,0.643,0.6411,0,0,0,0,0,0,0.6643,0.6636,0.6623,0.6608,0.6601,0.6561,0.6579,0.6578,0.6566,0.6568,0.6551,0.6549,0.6547,0.6515,0.651,0.6492,0.6521,0.6435,0.6433,0.6431,0.6413,0.6409,0.6405,0,0,0,0,0,0.6645,0.6618,0.6622,0.6616,0.6585,0.656,0.6556,0.6554,0.6565,0.6552,0.6544,0.655,0.6498,0.6512,0.6506,0.6487,0.6436,0.6433,0.6431,0.6415,0.641,0.6405,0,0,0,0,0,0,0.663,0.6616,0.662,0.6588,0.6575,0.6561,0.6544,0.6549,0.6532,0.6534,0.6532,0.6528,0.6497,0.649,0.6506,0.6453,0.6468,0.6465,0.6459,0.6454,0.645,0.6452,0.6519,0,0,0,0,0,0.6623,0.6604,0.6593,0.6566,0.6559,0.6553,0.6542,0.6542,0.6528,0.6522,0.6513,0.6499,0.6479,0.6466,0.6448,0.6413,0.6409,0.6397,0.6393,0.639,0.6386,0.6366,0.636,0.6421,0.6421,0.6421,0,0,0.6608,0.6598,0.6586,0.6562,0.6552,0.6532,0.6548,0.6526,0.6511,0.6519,0.649,0.6483,0.6467,0.6434,0.642,0.6427,0.6369,0.6386,0.6384,0.6382,0.6363,0.6357,0.6352,0.6419,0.6419,0.642,0,0,0.657,0.6562,0.6537,0.6527,0.6512,0.6508,0.6503,0.6489,0.6484,0.6456,0.6461,0.6443,0.641,0.6398,0.6387,0.6346,0.635,0.634,0.6319,0.63,0.6295,0.6291,0.6275,0.6269,0.6337,0.6337,0.6337,0,0.6553,0.6524,0.6524,0.6502,0.6491,0.6498,0.6473,0.6463,0.6442,0.6434,0.6443,0.6402,0.6391,0.6356,0.6346,0.6338,0.633,0.6341,0.6296,0.6291,0.6287,0.6272,0.6266,0.6335,0.6335,0.6336,0.6336,0,0.6503,0.6483,0.6465,0.6445,0.6433,0.6409,0.6405,0.6392,0.6394,0.6389,0.6359,0.6348,0.6327,0.6319,0.6319,0.6283,0.6288,0.6296,0.6312,0.628,0.6266,0.626,0.6334,0.6334,0.6334,0.6335,0,0,0.6453,0.6435,0.6429,0.642,0.6404,0.6388,0.6365,0.6345,0.6333,0.6319,0.6299,0.6271,0.6279,0.6267,0.6267,0.625,0.6217,0.626,0.626,0.6252,0.6175,0.6168,0.6161,0.622,0.6219,0.6218,0.6176,0,0.6413,0.6373,0.6373,0.6335,0.6316,0.6323,0.6303,0.6291,0.6286,0.6268,0.6263,0.6242,0.6255,0.6248,0.6231,0.6224,0.6201,0.6228,0.62,0.6199,0.6202,0.6154,0.6146,0.6106,0.617,0.6169,0.6169,0,0.6361,0.6346,0.6306,0.6294,0.6285,0.6267,0.6249,0.6233,0.6219,0.6216,0.6204,0.6206,0.6182,0.6199,0.6165,0.6183,0.6172,0.6167,0.6166,0.6162,0.6181,0.6147,0.6094,0.6087,0.616,0.6161,0.6161,0,0.6327,0.6297,0.6269,0.6262,0.6246,0.6233,0.6226,0.6214,0.6202,0.6186,0.6178,0.6159,0.6149,0.6134,0.6131,0.6144,0.6096,0.6114,0.6093,0.6093,0.6081,0.6081,0.6023,0.6076,0.6076,0.6077,0.6077,0,0.6282,0.6257,0.6254,0.6237,0.6209,0.621,0.6182,0.6176,0.6165,0.6146,0.6152,0.6134,0.6132,0.6113,0.6111,0.6082,0.6078,0.6075,0.6074,0.6073,0.6073,0.6065,0.6067,0.6075,0.6075,0.6076,0.6076,0,0.6238,0.6236,0.6206,0.6194,0.6191,0.6171,0.616,0.6144,0.614,0.6116,0.6111,0.6104,0.6083,0.6079,0.6053,0.6052,0.6017,0.602,0.6022,0.6022,0.6001,0.6002,0.5934,0.5924,0.5985,0.5984,0.5984,0,0.6209,0.619,0.6177,0.6165,0.6157,0.6138,0.6126,0.6126,0.6113,0.6097,0.6082,0.6061,0.6044,0.601,0.6002,0.5983,0.5984,0.5962,0.5981,0.5981,0.5982,0.5983,0.5981,0.5957,0.5957,0.5956,0.5956,0,0.6156,0.6156,0.6139,0.6121,0.6107,0.6093,0.608,0.607,0.6068,0.6053,0.6032,0.6019,0.5993,0.5972,0.5953,0.5945,0.5949,0.595,0.5944,0.5942,0.5943,0.5941,0.601,0.5951,0.5952,0.5952,0.5952,0.5952,0.6118,0.6101,0.6089,0.607,0.606,0.6048,0.6032,0.6026,0.6009,0.5988,0.5989,0.5965,0.5952,0.5927,0.5918,0.5899,0.5906,0.5897,0.5895,0.5892,0.5889,0.5948,0.5895,0.5895,0.5895,0.5896,0.5896,0,0.6064,0.6057,0.604,0.6021,0.6006,0.6013,0.5999,0.5986,0.5965,0.5953,0.5936,0.5911,0.5891,0.5883,0.5863,0.5849,0.5851,0.5844,0.5844,0.5842,0.5885,0.5892,0.5843,0.5843,0.5843,0.5843,0.5843,0.5843,0.6034,0.6007,0.6005,0.5973,0.5966,0.5943,0.5934,0.5922,0.5913,0.5885,0.5868,0.5863,0.5852,0.5832,0.5813,0.5811,0.5803,0.5795,0.5794,0.5834,0.5839,0.5844,0.585,0.5793,0.5793,0.5752,0.5752,0.5751]}]]